Location: Mentone
(34.5413°N, 85.5351°W)
Time: 19:44:51
(UTC-06:00)

ADEOS Rocket - Visible Passes

Search period start: 01 February 2015 00:00
Search period end: 11 February 2015 00:00
Orbit: 860 x 1307 km, 98.7° (Epoch: 30 January)

Date Brightness Start Highest point End Pass type
(mag) Time Alt. Az. Time Alt. Az. Time Alt. Az.
01 Feb 3.7 18:40:04 29° ENE 18:40:15 30° ENE 18:45:39 10° N visible
01 Feb 4.5 20:26:59 31° WNW 20:26:59 31° WNW 20:31:16 10° NNW visible
02 Feb 4.6 17:50:17 10° ENE 17:52:02 12° ENE 17:54:13 10° NE visible
02 Feb 2.9 19:37:00 79° N 19:37:00 79° N 19:42:59 10° NNW visible
03 Feb 3.5 18:46:58 33° E 18:47:56 35° ENE 18:53:42 10° N visible
03 Feb 4.6 20:33:54 29° W 20:33:54 29° W 20:38:52 10° NW visible
04 Feb 4.5 17:56:56 10° E 17:59:39 14° ENE 18:03:01 10° NNE visible
04 Feb 3.0 19:43:51 73° SSW 19:44:20 78° WSW 19:50:48 10° NNW visible
05 Feb 3.3 18:53:48 34° ESE 18:55:36 42° ENE 19:01:42 10° N visible
05 Feb 4.9 20:40:43 24° WSW 20:41:27 25° W 20:46:26 10° NW visible
06 Feb 4.4 18:03:43 10° E 18:07:16 17° ENE 18:11:28 10° NNE visible
06 Feb 3.3 19:50:38 50° SSW 19:52:06 66° W 19:58:37 10° NNW visible
07 Feb 3.2 19:00:31 29° SE 19:03:18 50° ENE 19:09:41 10° N visible
07 Feb 5.1 20:47:26 19° WSW 20:49:21 21° W 20:53:55 10° NW visible
08 Feb 4.2 18:10:38 10° ESE 18:14:55 21° ENE 18:19:45 10° NNE visible
08 Feb 3.6 19:57:16 33° SSW 19:59:54 56° W 20:06:24 10° NNW visible
09 Feb 3.0 19:07:04 22° SE 19:11:01 60° ENE 19:17:38 10° N visible
09 Feb 5.4 20:53:59 13° SW 20:57:16 18° W 21:01:19 10° NW visible
10 Feb 4.1 18:17:48 10° ESE 18:22:35 25° ENE 18:27:57 10° NNE visible
10 Feb 3.9 20:03:42 20° SSW 20:07:43 47° W 20:14:09 10° NNW visible
